N1GUJ Weather Reports


Display with metric or nautical units.
time (UTC)temp
F
wind
direction
speed
MPH
gust
MPH
rain 1hr
in
rain 24hr
in
rain mn
in
humidity
%
barometer
mb
20260509132928 52 207 0.0 6.0 0.00 0.00 0.00 45 1010.6
20260509132431 52 203 3.0 6.0 0.00 0.00 0.00 45 1010.7
20260509131929 52 195 4.0 5.0 0.00 0.00 0.00 43 1010.8
20260509131431 51 208 0.0 4.0 0.00 0.00 0.00 45 1010.8
20260509130931 50 255 2.0 4.0 0.00 0.00 0.00 48 1010.9
20260509130431 49 204 1.0 4.0 0.00 0.00 0.00 50 1011.0
20260509125931 48 189 0.0 3.0 0.00 0.00 0.00 51 1010.9
20260509125428 47 188 2.0 5.0 0.00 0.00 0.00 54 1011.0
20260509124931 45 201 2.0 5.0 0.00 0.00 0.00 56 1011.1
20260509124428 44 248 1.0 5.0 0.00 0.00 0.00 62 1011.2
20260509123932 43 189 0.0 1.0 0.00 0.00 0.00 64 1011.2
20260509123428 42 189 0.0 2.0 0.00 0.00 0.00 64 1011.3
20260509122928 42 188 0.0 1.0 0.00 0.00 0.00 65 1011.3
20260509122428 41 188 0.0 0.0 0.00 0.00 0.00 66 1011.3
20260509121931 41 188 0.0 0.0 0.00 0.00 0.00 66 1011.2
20260509121428 41 188 0.0 0.0 0.00 0.00 0.00 67 1011.3
20260509120935 40 188 0.0 2.0 0.00 0.00 0.00 66 1011.3
20260509120431 40 188 0.0 1.0 0.00 0.00 0.00 66 1011.3
20260509115934 39 188 1.0 2.0 0.00 0.00 0.00 66 1011.4
20260509115434 39 188 0.0 2.0 0.00 0.00 0.00 66 1011.4
20260509114929 39 188 2.0 3.0 0.00 0.00 0.00 67 1011.4
20260509114428 38 188 1.0 3.0 0.00 0.00 0.00 68 1011.4
20260509113931 38 188 0.0 3.0 0.00 0.00 0.00 69 1011.4
20260509113428 37 189 0.0 3.0 0.00 0.00 0.00 69 1011.4
20260509112928 37 189 0.0 2.0 0.00 0.00 0.00 69 1011.4
20260509112431 37 189 0.0 2.0 0.00 0.00 0.00 70 1011.4
20260509111932 36 189 1.0 2.0 0.00 0.00 0.00 70 1011.3
20260509111431 36 189 1.0 2.0 0.00 0.00 0.00 71 1011.3
20260509110928 36 189 0.0 4.0 0.00 0.00 0.00 71 1011.3
20260509110428 36 221 0.0 3.0 0.00 0.00 0.00 71 1011.3
20260509105934 36 221 0.0 3.0 0.00 0.00 0.00 71 1011.3
20260509105428 36 221 1.0 3.0 0.00 0.00 0.00 71 1011.3
20260509104934 36 148 0.0 3.0 0.00 0.00 0.00 71 1011.2
20260509104428 35 148 1.0 2.0 0.00 0.00 0.00 71 1011.3
20260509103928 35 148 1.0 3.0 0.00 0.00 0.00 72 1011.3
20260509103431 35 148 1.0 3.0 0.00 0.00 0.00 71 1011.3
20260509102934 35 148 0.0 3.0 0.00 0.00 0.00 72 1011.2
20260509102435 35 148 0.0 3.0 0.00 0.00 0.00 71 1011.2
20260509101930 35 148 0.0 3.0 0.00 0.00 0.00 71 1011.1
20260509101431 35 148 2.0 3.0 0.00 0.00 0.00 71 1011.2
20260509100928 35 148 1.0 3.0 0.00 0.00 0.00 71 1011.1
20260509100432 35 148 1.0 2.0 0.00 0.00 0.00 72 1011.1
20260509095934 35 148 0.0 3.0 0.00 0.00 0.00 72 1011.1
20260509095428 35 148 3.0 3.0 0.00 0.00 0.00 72 1011.0
20260509094927 35 148 0.0 2.0 0.00 0.00 0.00 72 1010.9
20260509094436 35 148 0.0 2.0 0.00 0.00 0.00 72 1010.9
20260509093927 35 148 0.0 2.0 0.00 0.00 0.00 72 1010.9
20260509093437 35 148 0.0 2.0 0.00 0.00 0.00 72 1010.9
20260509092931 35 148 0.0 2.0 0.00 0.00 0.00 71 1010.9
20260509092433 35 148 1.0 3.0 0.00 0.00 0.00 71 1010.9
20260509091931 35 148 1.0 2.0 0.00 0.00 0.00 70 1010.9
20260509091433 35 148 0.0 3.0 0.00 0.00 0.00 71 1010.9
20260509090930 36 148 1.0 2.0 0.00 0.00 0.00 70 1010.9
20260509090430 36 148 0.0 2.0 0.00 0.00 0.00 70 1010.9
20260509085936 36 148 1.0 2.0 0.00 0.00 0.00 71 1010.9
20260509085431 35 148 0.0 3.0 0.00 0.00 0.00 71 1010.9
20260509084931 35 148 1.0 2.0 0.00 0.00 0.00 71 1010.8
20260509084431 35 148 1.0 2.0 0.00 0.00 0.00 71 1010.8
20260509083927 36 148 0.0 2.0 0.00 0.00 0.00 71 1010.8
20260509083427 36 148 2.0 4.0 0.00 0.00 0.00 71 1010.8
20260509082927 36 148 2.0 2.0 0.00 0.00 0.00 71 1010.8
20260509082430 36 148 1.0 2.0 0.00 0.00 0.00 71 1010.9
20260509081927 36 148 0.0 2.0 0.00 0.00 0.00 71 1010.9
20260509081433 36 148 0.0 1.0 0.00 0.00 0.00 72 1010.9
20260509080927 36 148 0.0 4.0 0.00 0.00 0.00 72 1010.8
20260509080427 35 193 0.0 2.0 0.00 0.00 0.00 72 1010.8
20260509075933 35 193 0.0 2.0 0.00 0.00 0.00 72 1010.8
20260509075427 35 193 2.0 2.0 0.00 0.00 0.00 72 1010.9
20260509074927 35 193 0.0 2.0 0.00 0.00 0.00 72 1010.9
20260509074427 35 193 0.0 3.0 0.00 0.00 0.00 72 1010.9
20260509073930 35 193 0.0 2.0 0.00 0.00 0.00 72 1010.9
20260509073427 35 193 1.0 2.0 0.00 0.00 0.00 72 1011.0
20260509072928 36 193 0.0 2.0 0.00 0.00 0.00 71 1011.1
20260509072427 36 193 0.0 2.0 0.00 0.00 0.00 71 1011.1
20260509071927 36 193 0.0 2.0 0.00 0.00 0.00 71 1011.0
20260509071433 36 193 0.0 1.0 0.00 0.00 0.00 70 1011.1
20260509070928 36 193 0.0 2.0 0.00 0.00 0.00 70 1011.1
20260509070430 36 193 1.0 2.0 0.00 0.00 0.00 69 1011.1
20260509065931 36 193 1.0 3.0 0.00 0.00 0.00 69 1011.1
20260509065427 36 193 0.0 2.0 0.00 0.00 0.00 69 1011.1
20260509064927 37 193 0.0 2.0 0.00 0.00 0.00 69 1011.1
20260509064427 37 193 1.0 2.0 0.00 0.00 0.00 69 1011.1
20260509063927 37 193 0.0 2.0 0.00 0.00 0.00 69 1011.1
20260509063427 37 193 1.0 2.0 0.00 0.00 0.00 68 1011.1
20260509062928 37 193 1.0 3.0 0.00 0.00 0.00 69 1011.1
20260509062430 37 193 0.0 3.0 0.00 0.00 0.00 68 1011.1
20260509061927 37 193 1.0 2.0 0.00 0.00 0.00 69 1011.1
20260509061427 37 193 1.0 2.0 0.00 0.00 0.00 69 1011.2
20260509060928 37 193 2.0 3.0 0.00 0.00 0.00 68 1011.1
20260509060434 37 193 0.0 1.0 0.00 0.00 0.00 69 1011.2
20260509055931 37 193 0.0 2.0 0.00 0.00 0.00 69 1011.2
20260509055427 37 193 1.0 2.0 0.00 0.00 0.00 69 1011.2
20260509054926 37 193 0.0 4.0 0.00 0.00 0.00 69 1011.2
20260509054435 37 255 2.0 3.0 0.00 0.00 0.00 69 1011.2
20260509053932 37 255 2.0 2.0 0.00 0.00 0.00 69 1011.2
20260509053431 37 256 1.0 2.0 0.00 0.00 0.00 70 1011.2
20260509052926 37 256 0.0 1.0 0.00 0.00 0.00 70 1011.2
20260509052432 37 256 0.0 1.0 0.00 0.00 0.00 70 1011.2
20260509051927 36 256 0.0 1.0 0.00 0.00 0.00 69 1011.2
20260509051426 36 256 0.0 1.0 0.00 0.00 0.00 70 1011.2
20260509050931 36 256 0.0 0.0 0.00 0.00 0.00 71 1011.1
20260509050429 36 256 0.0 0.0 0.00 0.00 0.00 71 1011.1
20260509045928 36 256 0.0 0.0 0.00 0.00 0.00 70 1011.1
20260509045429 36 256 0.0 0.0 0.00 0.00 0.00 71 1011.1
20260509044927 36 256 0.0 0.0 0.00 0.00 0.00 70 1011.1
20260509044435 36 256 0.0 0.0 0.00 0.00 0.00 71 1011.1
20260509043927 36 256 0.0 0.0 0.00 0.00 0.00 72 1011.2
20260509043435 36 256 0.0 0.0 0.00 0.00 0.00 71 1011.2
20260509042926 36 256 0.0 0.0 0.00 0.00 0.00 74 1011.1
20260509042429 35 256 0.0 0.0 0.00 0.00 0.00 75 1011.1
20260509041929 35 256 0.0 0.0 0.00 0.00 0.00 77 1011.2
20260509041430 35 256 0.0 0.0 0.00 0.00 0.00 78 1011.1
20260509040930 35 256 0.0 0.0 0.00 0.00 0.00 79 1011.1
20260509040429 35 256 0.0 0.0 0.00 0.00 0.00 79 1011.1
20260509035929 35 256 0.0 0.0 0.00 0.00 0.00 78 1011.0
20260509035426 35 256 0.0 0.0 0.00 0.00 0.00 78 1010.9
20260509034926 35 256 0.0 0.0 0.00 0.00 0.00 77 1010.9
20260509034432 35 256 0.0 0.0 0.00 0.00 0.00 77 1011.0
20260509033927 36 256 0.0 0.0 0.00 0.00 0.00 77 1010.9
20260509033429 36 256 0.0 0.0 0.00 0.00 0.00 76 1010.9
20260509032927 36 256 0.0 0.0 0.00 0.00 0.00 76 1011.0
20260509032426 37 256 0.0 0.0 0.00 0.00 0.00 75 1010.9
20260509031926 37 256 0.0 0.0 0.00 0.00 0.00 74 1010.8
20260509031426 37 256 0.0 0.0 0.00 0.00 0.00 74 1010.7
20260509030926 37 256 0.0 0.0 0.00 0.00 0.00 73 1010.7
20260509030429 38 256 0.0 0.0 0.00 0.00 0.00 73 1010.7
20260509025929 38 256 0.0 0.0 0.00 0.00 0.00 72 1010.7
20260509025429 38 256 0.0 0.0 0.00 0.00 0.00 70 1010.6
20260509024926 39 256 0.0 0.0 0.00 0.00 0.00 69 1010.6
20260509024429 39 256 0.0 0.0 0.00 0.00 0.00 68 1010.6
20260509023927 39 256 0.0 0.0 0.00 0.00 0.00 67 1010.6
20260509023429 40 256 0.0 0.0 0.00 0.00 0.00 67 1010.6
20260509022929 40 256 0.0 0.0 0.00 0.00 0.00 66 1010.6
20260509022429 40 256 0.0 0.0 0.00 0.00 0.00 66 1010.6
20260509021925 41 256 0.0 0.0 0.00 0.00 0.00 66 1010.5
20260509021426 41 256 0.0 0.0 0.00 0.00 0.00 64 1010.5
20260509020925 41 256 0.0 0.0 0.00 0.00 0.00 64 1010.5
20260509020438 41 256 0.0 0.0 0.00 0.00 0.00 63 1010.4
20260509015926 42 256 0.0 0.0 0.00 0.00 0.00 65 1010.4
20260509015435 42 256 0.0 0.0 0.00 0.00 0.00 63 1010.3
20260509014930 42 256 0.0 0.0 0.00 0.00 0.00 63 1010.3
20260509014426 42 256 0.0 0.0 0.00 0.00 0.00 63 1010.2
20260509013925 42 256 0.0 0.0 0.00 0.00 0.00 63 1010.2
20260509013425 42 256 0.0 0.0 0.00 0.00 0.00 61 1010.2
20260509012925 43 256 0.0 0.0 0.00 0.00 0.00 62 1010.1
20260509012432 43 256 0.0 0.0 0.00 0.00 0.00 63 1010.0
20260509011925 43 256 0.0 0.0 0.00 0.00 0.00 62 1010.0
20260509011426 43 256 0.0 0.0 0.00 0.00 0.00 61 1010.0
20260509010926 43 256 0.0 0.0 0.00 0.00 0.00 60 1009.8
20260509010428 44 256 0.0 0.0 0.00 0.00 0.00 61 1009.8
20260509005925 44 256 0.0 0.0 0.00 0.00 0.00 61 1009.7
20260509005425 44 256 0.0 0.0 0.00 0.00 0.00 61 1009.6
20260509004928 44 256 0.0 0.0 0.00 0.00 0.00 62 1009.6
20260509004425 45 256 0.0 0.0 0.00 0.00 0.00 59 1009.5
20260509003925 45 256 0.0 0.0 0.00 0.00 0.00 58 1009.4
20260509003425 45 256 0.0 0.0 0.00 0.00 0.00 58 1009.4
20260509002926 46 256 0.0 0.0 0.00 0.00 0.00 56 1009.3
20260509002425 46 256 0.0 0.0 0.00 0.00 0.00 56 1009.3
20260509001925 46 256 0.0 0.0 0.00 0.00 0.00 56 1009.3
20260509001425 46 256 0.0 0.0 0.00 0.00 0.00 53 1009.2
20260509000926 47 256 0.0 0.0 0.00 0.00 0.00 51 1009.2
20260509000425 47 256 0.0 0.0 0.00 0.00 0.00 50 1009.2
20260508235925 47 256 0.0 0.0 0.00 0.00 0.00 50 1009.2
20260508235425 48 256 0.0 0.0 0.00 0.00 0.00 49 1009.1
20260508234928 48 256 0.0 0.0 0.00 0.00 0.00 49 1009.0
20260508234431 48 256 0.0 0.0 0.00 0.00 0.00 47 1009.0
20260508233926 48 256 0.0 0.0 0.00 0.00 0.00 45 1009.0
20260508233428 48 256 0.0 0.0 0.00 0.00 0.00 46 1008.9
20260508232931 49 256 0.0 0.0 0.00 0.00 0.00 44 1008.9
20260508232429 49 256 0.0 0.0 0.00 0.00 0.00 44 1008.9
20260508231925 49 256 0.0 0.0 0.00 0.00 0.00 48 1008.9
20260508231428 49 256 0.0 0.0 0.00 0.00 0.00 43 1008.8
20260508230928 49 256 0.0 0.0 0.00 0.00 0.00 46 1008.8
20260508230429 49 256 0.0 0.0 0.00 0.00 0.00 44 1008.8
20260508225925 50 256 0.0 0.0 0.00 0.00 0.00 44 1008.7
20260508225428 50 256 0.0 0.0 0.00 0.00 0.00 41 1008.8
20260508224928 50 256 0.0 0.0 0.00 0.00 0.00 46 1008.7
20260508224429 50 256 0.0 0.0 0.00 0.00 0.00 41 1008.7
20260508223925 50 256 0.0 1.0 0.00 0.00 0.00 40 1008.8
20260508223428 50 256 0.0 1.0 0.00 0.00 0.00 41 1008.7
20260508222929 50 256 0.0 1.0 0.00 0.00 0.00 41 1008.7
20260508222431 50 256 0.0 2.0 0.00 0.00 0.00 39 1008.7
20260508221932 50 255 0.0 2.0 0.00 0.00 0.00 39 1008.7
20260508221425 50 255 0.0 0.0 0.00 0.00 0.00 44 1008.7
20260508220928 50 255 0.0 1.0 0.00 0.00 0.00 38 1008.6
20260508220424 51 255 0.0 3.0 0.00 0.00 0.00 39 1008.7
20260508215924 51 255 1.0 2.0 0.00 0.00 0.00 40 1008.6
20260508215424 50 255 0.0 1.0 0.00 0.00 0.00 39 1008.6
20260508214929 50 255 0.0 3.0 0.00 0.00 0.00 41 1008.6
20260508214430 50 255 0.0 0.0 0.00 0.00 0.00 39 1008.6
20260508213930 50 255 0.0 3.0 0.00 0.00 0.00 42 1008.5
20260508213430 50 255 0.0 1.0 0.00 0.00 0.00 40 1008.5
20260508212924 50 255 0.0 2.0 0.00 0.00 0.00 39 1008.5
20260508212431 51 256 0.0 2.0 0.00 0.00 0.00 40 1008.5
20260508211924 51 217 1.0 3.0 0.00 0.00 0.00 39 1008.5
20260508211430 51 299 1.0 4.0 0.00 0.00 0.00 40 1008.5
20260508210924 50 297 1.0 4.0 0.00 0.00 0.00 41 1008.4
20260508210427 50 294 0.0 3.0 0.00 0.00 0.00 40 1008.4
20260508205933 50 294 0.0 3.0 0.00 0.00 0.00 40 1008.3
20260508205424 51 293 0.0 4.0 0.00 0.00 0.00 40 1008.3
20260508204927 51 248 1.0 3.0 0.00 0.00 0.00 41 1008.3
20260508204430 51 248 1.0 4.0 0.00 0.00 0.00 36 1008.3
20260508203924 51 267 0.0 3.0 0.00 0.00 0.00 37 1008.3
20260508203427 52 339 0.0 3.0 0.00 0.00 0.00 40 1008.3
20260508202931 52 299 2.0 4.0 0.00 0.00 0.00 40 1008.3
20260508202428 51 311 2.0 3.0 0.00 0.00 0.00 42 1008.3
20260508201924 51 311 0.0 3.0 0.00 0.00 0.00 39 1008.2
20260508201425 51 215 0.0 9.0 0.00 0.00 0.00 40 1008.3
20260508200925 51 185 1.0 6.0 0.00 0.00 0.00 39 1008.3
20260508200427 51 219 3.0 6.0 0.00 0.00 0.00 39 1008.4
20260508195925 51 237 0.0 7.0 0.00 0.00 0.00 40 1008.3
20260508195424 51 334 0.0 8.0 0.00 0.00 0.00 42 1008.4
20260508194924 51 333 1.0 4.0 0.00 0.00 0.00 43 1008.3
20260508194427 50 238 1.0 5.0 0.00 0.00 0.00 43 1008.4
20260508193927 50 260 0.0 3.0 0.00 0.00 0.00 44 1008.4
20260508193434 50 260 0.0 4.0 0.00 0.00 0.00 44 1008.3
20260508192924 50 255 3.0 5.0 0.00 0.00 0.00 45 1008.4
20260508192424 50 231 3.0 4.0 0.00 0.00 0.00 43 1008.3
20260508191924 50 273 0.0 2.0 0.00 0.00 0.00 43 1008.3
20260508191430 50 273 0.0 4.0 0.00 0.00 0.00 44 1008.4
20260508190927 49 225 5.0 5.0 0.00 0.00 0.00 47 1008.3
20260508190427 49 302 0.0 3.0 0.00 0.00 0.00 43 1008.3
20260508185933 49 299 1.0 2.0 0.00 0.00 0.00 45 1008.4
20260508185433 49 2 0.0 3.0 0.00 0.00 0.00 46 1008.4
20260508184930 49 5 1.0 3.0 0.00 0.00 0.00 46 1008.5
20260508184424 49 353 0.0 4.0 0.00 0.00 0.00 46 1008.6
20260508183928 49 2 1.0 5.0 0.00 0.00 0.00 48 1008.6
20260508183424 49 225 2.0 2.0 0.00 0.00 0.00 46 1008.5
20260508182926 48 225 0.0 3.0 0.00 0.00 0.00 46 1008.6
20260508182427 48 224 1.0 1.0 0.00 0.00 0.00 49 1008.6
20260508181926 48 224 0.0 2.0 0.00 0.00 0.00 47 1008.6
20260508181424 48 224 1.0 3.0 0.00 0.00 0.00 49 1008.6
20260508180928 48 224 0.0 2.0 0.00 0.00 0.00 46 1008.6
20260508180424 48 224 0.0 3.0 0.00 0.00 0.00 46 1008.7
20260508175924 48 224 0.0 2.0 0.00 0.00 0.00 51 1008.6
20260508175424 48 224 0.0 2.0 0.00 0.00 0.00 52 1008.5
20260508174925 48 224 0.0 3.0 0.00 0.00 0.00 49 1008.5
20260508174426 48 218 1.0 3.0 0.00 0.00 0.00 49 1008.5
20260508173924 47 193 0.0 1.0 0.00 0.00 0.00 51 1008.6
20260508173424 47 193 0.0 1.0 0.00 0.00 0.00 51 1008.7
20260508172925 47 193 1.0 3.0 0.00 0.00 0.00 52 1008.8
20260508172427 47 172 2.0 5.0 0.00 0.00 0.00 48 1008.8
20260508171928 47 274 1.0 3.0 0.00 0.00 0.00 48 1008.8
20260508171423 47 3 1.0 3.0 0.00 0.00 0.00 49 1008.7
20260508170927 47 4 0.0 1.0 0.00 0.00 0.00 49 1008.7
20260508170423 47 4 0.0 2.0 0.00 0.00 0.00 47 1008.6
20260508165925 46 5 1.0 2.0 0.00 0.00 0.00 51 1008.6
20260508165430 46 5 1.0 1.0 0.00 0.00 0.00 49 1008.5
20260508164926 46 5 0.0 0.0 0.00 0.00 0.00 52 1008.5
20260508164427 46 5 0.0 1.0 0.00 0.00 0.00 48 1008.5
20260508163924 46 5 0.0 2.0 0.00 0.00 0.00 48 1008.6
20260508163423 47 5 1.0 2.0 0.00 0.00 0.00 49 1008.5
20260508162930 47 7 0.0 4.0 0.00 0.00 0.00 48 1008.5
20260508162427 47 316 1.0 2.0 0.00 0.00 0.00 50 1008.6
20260508161923 46 316 1.0 3.0 0.00 0.00 0.00 48 1008.6
20260508161424 47 316 0.0 4.0 0.00 0.00 0.00 49 1008.5
20260508160924 47 247 0.0 2.0 0.00 0.00 0.00 49 1008.5
20260508160426 47 266 1.0 3.0 0.00 0.00 0.00 50 1008.6
20260508155923 47 228 0.0 4.0 0.00 0.00 0.00 52 1008.5
20260508155430 47 240 0.0 3.0 0.00 0.00 0.00 49 1008.4
20260508154923 47 339 0.0 4.0 0.00 0.00 0.00 48 1008.5
20260508154426 48 270 0.0 4.0 0.00 0.00 0.00 50 1008.4
20260508153923 48 268 0.0 4.0 0.00 0.00 0.00 47 1008.3
20260508153427 49 243 0.0 3.0 0.00 0.00 0.00 48 1008.4
20260508152932 49 230 3.0 4.0 0.00 0.00 0.00 48 1008.3
20260508152426 48 235 0.0 4.0 0.00 0.00 0.00 52 1008.3
20260508151926 47 234 0.0 9.0 0.00 0.00 0.00 55 1008.4
20260508151426 47 342 1.0 3.0 0.00 0.00 0.00 50 1008.3
20260508150923 47 244 0.0 4.0 0.00 0.00 0.00 51 1008.4
20260508150430 47 239 1.0 2.0 0.00 0.00 0.00 54 1008.4
20260508145923 47 238 0.0 5.0 0.00 0.00 0.00 52 1008.5
20260508145424 46 245 0.0 4.0 0.00 0.00 0.00 56 1008.5
20260508144929 46 235 2.0 5.0 0.00 0.00 0.00 59 1008.5
20260508144426 46 220 3.0 4.0 0.00 0.00 0.00 56 1008.6
20260508143926 45 340 0.0 4.0 0.00 0.00 0.00 58 1008.6
20260508143429 45 187 0.0 2.0 0.00 0.00 0.00 60 1008.6
20260508142926 44 187 0.0 3.0 0.00 0.00 0.00 61 1008.5
20260508142423 44 186 1.0 4.0 0.00 0.00 0.00 58 1008.6
20260508141923 43 266 0.0 4.0 0.00 0.00 0.00 58 1008.6
20260508141426 43 265 0.0 4.0 0.00 0.00 0.00 60 1008.6
20260508140923 43 225 0.0 2.0 0.00 0.00 0.00 61 1008.7
20260508140426 43 224 0.0 5.0 0.00 0.00 0.00 63 1008.7
20260508135922 43 275 0.0 3.0 0.00 0.00 0.00 63 1008.6
20260508135426 43 242 0.0 2.0 0.00 0.00 0.00 65 1008.7
20260508134922 43 242 0.0 5.0 0.00 0.00 0.00 62 1008.7
20260508134425 43 222 1.0 1.0 0.00 0.00 0.00 64 1008.8
20260508133922 43 222 0.0 3.0 0.00 0.00 0.00 63 1008.7
20260508133425 43 220 0.0 5.0 0.00 0.00 0.00 63 1008.7